Weather History for KMCK - June, 2013

Change the Weather History Date:

Friday, June 21, 2013

  Actual Average Record
Temperature  
Mean Temperature 88 °F 72 °F  
Max Temperature 103 °F 86 °F 106 °F (1974)
Min Temperature 72 °F 58 °F 46 °F (1973)
Cooling Degree Days 22    
Growing Degree Days 38 (Base 50)    
Moisture  
Dew Point 55 °F    
Average Humidity 35    
Maximum Humidity 52    
Minimum Humidity 18    
Precipitation  
Precipitation 0.00 in 0.12 in 2.15 in (1967)
Month to date precipitation 0.45 2.39  
Year to date precipitation 5.34 10.33  
Sea Level Pressure  
Sea Level Pressure 29.68 in    
Wind  
Wind Speed 20 mph (South)    
Max Wind Speed 30 mph    
Max Gust Speed 43 mph    
Visibility 10 miles    
Events Thunderstorm    
T = Trace of Precipitation, MM = Missing Value Source: NWS Daily Summary

Daily Weather History Graph

Daily Weather History Graph

Search for Another Location

Airport or City:

Trip Planner

Search our weather history database for the weather conditions in past years. The results will help you decide how hot, cold, wet, or windy it might be!

Date:

Astronomy

Jun. 21, 2013 Rise Set
Actual Time 6:13 AM CDT 9:15 PM CDT
Civil Twilight 5:40 AM CDT 9:48 PM CDT
Nautical Twilight 4:58 AM CDT 10:30 PM CDT
Astronomical Twilight 4:08 AM CDT 11:19 PM CDT
Moon 7:27 PM CDT (6/21) 4:30 AM CDT (6/21)
Length of Visible Light 16h 08m
Length of Day
15h 02m
Waxing Gibbous, 95% of the Moon is Illuminated
Jun 21
Waxing Gibbous
Jun 23
Full
Jun 29
Last Quarter
Jul 8
New
Jul 15
First Quarter

Hourly Weather History & Observations

Time (CDT) Temp. Heat Index Dew Point Humidity Pressure Visibility Wind Dir Wind Speed Gust Speed Precip Events Conditions
12:53 AM 84.9 °F 86.6 °F 64.9 °F 51% 29.70 in 10.0 mi South 20.7 mph 31.1 mph N/A   Clear
1:36 AM 86.0 °F 85.4 °F 59.0 °F 40% 29.78 in 9.0 mi South 29.9 mph 41.4 mph N/A Thunderstorm Partly Cloudy
1:53 AM 84.9 °F 83.2 °F 53.1 °F 33% 29.68 in 10.0 mi South 24.2 mph 38.0 mph N/A Thunderstorm Clear
2:12 AM 87.8 °F 85.7 °F 53.6 °F 31% 29.78 in 10.0 mi South 29.9 mph 42.6 mph N/A   Clear
2:53 AM 87.1 °F 84.9 °F 53.1 °F 31% 29.68 in 10.0 mi South 18.4 mph 32.2 mph N/A   Clear
3:53 AM 82.9 °F 82.4 °F 57.0 °F 41% 29.68 in 10.0 mi SSE 24.2 mph 32.2 mph N/A   Clear
4:53 AM 79.0 °F - 57.9 °F 48% 29.69 in 10.0 mi SE 18.4 mph 31.1 mph N/A   Clear
5:53 AM 75.9 °F - 55.9 °F 50% 29.69 in 10.0 mi SSE 12.7 mph 21.9 mph N/A   Clear
6:53 AM 73.9 °F - 53.1 °F 48% 29.68 in 10.0 mi South 13.8 mph 23.0 mph N/A   Clear
7:53 AM 75.0 °F - 54.0 °F 48% 29.68 in 10.0 mi South 15.0 mph 23.0 mph N/A   Clear
8:53 AM 81.0 °F - 52.0 °F 36% 29.68 in 10.0 mi SSW 25.3 mph 34.5 mph N/A   Clear
9:53 AM 86.0 °F 84.0 °F 53.1 °F 32% 29.68 in 10.0 mi SW 18.4 mph 27.6 mph N/A   Clear
10:53 AM 88.0 °F 86.5 °F 55.9 °F 34% 29.67 in 10.0 mi SSW 18.4 mph 24.2 mph N/A   Clear
11:53 AM 91.0 °F 90.0 °F 57.9 °F 33% 29.68 in 10.0 mi SW 11.5 mph 18.4 mph N/A   Clear
12:53 PM 95.0 °F 94.0 °F 57.9 °F 29% 29.67 in 10.0 mi SW 11.5 mph 18.4 mph N/A   Clear
1:53 PM 99.0 °F 96.9 °F 54.0 °F 22% 29.65 in 10.0 mi South 15.0 mph 25.3 mph N/A   Clear
2:53 PM 102.0 °F - 51.1 °F 18% 29.63 in 10.0 mi South 20.7 mph 31.1 mph N/A   Clear
3:53 PM 100.9 °F 98.7 °F 53.1 °F 20% 29.63 in 10.0 mi South 19.6 mph 25.3 mph N/A   Clear
4:53 PM 100.9 °F - 52.0 °F 19% 29.62 in 10.0 mi South 19.6 mph 27.6 mph N/A   Clear
5:53 PM 100.9 °F - 50.0 °F 18% 29.58 in 10.0 mi SSE 20.7 mph 27.6 mph N/A   Clear
6:53 PM 98.1 °F 96.1 °F 54.0 °F 23% 29.59 in 10.0 mi SSE 25.3 mph 33.4 mph N/A   Clear
7:53 PM 95.0 °F 94.0 °F 57.9 °F 29% 29.61 in 9.0 mi South 26.5 mph 35.7 mph N/A   Clear
8:53 PM 90.0 °F 90.0 °F 61.0 °F 38% 29.62 in 9.0 mi SSE 23.0 mph 32.2 mph N/A   Clear
9:53 PM 86.0 °F 85.4 °F 59.0 °F 40% 29.65 in 10.0 mi South 13.8 mph 24.2 mph N/A   Clear
10:25 PM 87.8 °F 86.5 °F 57.2 °F 35% 29.80 in 10.0 mi WNW 9.2 mph 32.2 mph N/A   Partly Cloudy
10:53 PM 81.0 °F - 51.1 °F 35% 29.71 in 10.0 mi North 15.0 mph 27.6 mph N/A   Clear
11:53 PM 73.9 °F - 55.0 °F 52% 29.73 in 10.0 mi ENE 8.1 mph - N/A   Clear